Location: Meanaryar
(48.4161°N, 4.7315°W)
Time: 13:42:49
(UTC+00:00)

Cosmos 1092 Rocket - Pass Details

Date: 23 January 2021
Orbit: 954 x 995 km, 83.0° (Epoch: 01 March)

Event Time Altitude Azimuth Distance (km) Brightness Sun altitude
Rises 06:19:00 0° 349° (NNW) 3,645 6.8 -16.3°
Reaches altitude 10° 06:21:30 10° 347° (NNW) 2,695 6.1 -15.9°
Maximum altitude 06:27:37 69° 265° (W) 1,022 3.9 -14.9°
Drops below altitude 10° 06:33:43 10° 184° (S) 2,692 6.4 -13.9°
Sets 06:36:13 0° 182° (S) 3,640 7.2 -13.5°
